COSMOS 1275 DEB, 12676

Orbit data source: Space-Track

COSMOS 1275 DEB, 12676 is space debris in LEO originally from a launch on Thu, 04 Jun 1981 UTC launched from the Plesetsk Missile And Space Complex (PKMTR). Debris objects in space refer to the collection of defunct objects orbiting the Earth. Examples of debris include non-operational satellites, rocket bodies, and fragments generated from explosions, collisions, or faulty payload assembly.

Loading next visibility...
Identifier
12676, 1981-053AG
Orbit
LEO
Last TLE update
11 hours ago
Origin
Manufacturer
Unknown
Mission
Spacecraft
Bus & Motor
Unknown
Mass
Unknown
Launch date (UTC)
1981-06-04 (44 years ago)
Launch vehicle
Unknown
Launch site
Plesetsk Missile And Space Complex (PKMTR)
Object type
Payload
Rocket body
Debris
Shape & HBR
Unknown
Radar Cross Section
Medium (>0.1 m² and <1 m²)

Expand to show TLE details & history

TLE from 11 hours ago
0 COSMOS 1275 DEB
1 12676U 81053AG  25128.78095435  .00000644  00000-0  53922-3 0  9996
2 12676  82.9445  65.9869 0043568 167.5601 228.2063 13.86371467204680
Epoch: 2025-05-08T18:44Z
Definitive object data (Epoch: 2025-05-08T18:44:34.455Z)
Latitude
35.1563°
Longitude
-77.02859°
Altitude
967.4 km
Speed
7.36 km/s
True Right ascension
04h 43m 50s
True Declination
34° 59' 57"
Sunlit
Object was in daylight at TLE epoch
Visualization TLE readout
Latitude
-9.76313°
Longitude
98.86058°
Altitude
916.785 km
Speed
7.408 km/s
Apparent Right ascension
19h 14m 52s
Apparent Declination
-50° 29' 59"
Sunlit
Object is in full shadow
Visualization observer readout
Local Sidereal Time
14:01:15
Azimuth
137.241° SSE
Elevation
-23.396°
Doppler factor
1
Orbital elements
Apogee altitude
970.385 km
Perigee altitude
906.63 km
Semi-major axis
7,316.644 km
Eccentricity
0.0043568
Inclination
82.9445°
RAAN
65.9869°
Arg. of periapsis
167.5601°
True anomaly
227.83543°
Mean anomaly
228.2063°
Eccentric anomaly
228.02073°
Mean motion
3.46797 °/min
BSTAR
0.00053922
Orbital period
103.81 mins
Loading maneuver chart data...
Loading SW <> Apogee altitude chart data...
Loading historical data...
Loading historical data...
Loading historical data...
Loading historical data...
Loading historical data...
Loading historical data...
Loading historical data...

COSMOS 1275 DEB Visibility forecast

Observer location: undefined°, undefined°

Span
Click to sort rows by Start time (UTC) header in descending order
Start Az.
Max El. time (UTC)
Max El. Az.
Max El.
End time (UTC)
End Az.
11 mins2025-05-09 07:16:30.637Z3.513° NNE2025-05-09 07:21:30.637Z64.241° ENE38.269°2025-05-09 07:27:30.637Z155.671° SSE
6 mins2025-05-09 09:03:30.637Z307.637° NW2025-05-09 09:06:30.637Z270.17° WNW18.719°2025-05-09 09:09:30.637Z236.681° WSW
4 mins2025-05-09 18:59:30.637Z98.498° ESE2025-05-09 19:01:30.637Z76.563° E14.697°2025-05-09 19:03:30.637Z55.742° ENE
10 mins2025-05-09 20:40:30.637Z195.367° SSW2025-05-09 20:44:30.637Z241.573° WSW43.15°2025-05-09 20:50:30.637Z2.465° NNE
|